Time,TemperatureF,DewpointF,PressureIn,WindDirection,WindDirectionDegrees,WindSpeedMPH,WindSpeedGustMPH,Humidity,HourlyPrecipIn,Conditions,Clouds,dailyrainin,SolarRadiationWatts/m^2,SoftwareType,DateUTC
2013-09-05 00:02:00,78.9,77.0,30.05,ENE,65,0.0,-999.0,94,-99.99,,,0.00,0,weatherlink.com 1.10,2013-09-05 04:02:00,
2013-09-05 00:17:00,78.9,77.0,30.05,ESE,103,2.0,-999.0,94,-99.99,,,0.00,0,weatherlink.com 1.10,2013-09-05 04:17:00,
2013-09-05 00:32:00,78.8,77.0,30.05,ENE,60,0.0,-999.0,95,-99.99,,,0.00,0,weatherlink.com 1.10,2013-09-05 04:32:00,
2013-09-05 00:47:00,78.8,77.0,30.05,ENE,74,0.0,-999.0,95,-99.99,,,0.00,0,weatherlink.com 1.10,2013-09-05 04:47:00,
2013-09-05 01:02:00,78.8,77.0,30.04,ENE,76,0.0,-999.0,95,-99.99,,,0.00,0,weatherlink.com 1.10,2013-09-05 05:02:00,
2013-09-05 01:17:00,78.8,77.0,30.04,East,86,0.0,-999.0,95,-99.99,,,0.00,0,weatherlink.com 1.10,2013-09-05 05:17:00,
2013-09-05 01:32:00,78.6,77.0,30.03,East,85,0.0,-999.0,95,-99.99,,,0.00,0,weatherlink.com 1.10,2013-09-05 05:32:00,
2013-09-05 01:47:00,78.6,77.0,30.02,East,88,0.0,-999.0,95,-99.99,,,0.00,0,weatherlink.com 1.10,2013-09-05 05:47:00,
2013-09-05 02:02:00,78.5,77.0,30.02,ENE,78,0.0,-999.0,95,-99.99,,,0.00,0,weatherlink.com 1.10,2013-09-05 06:02:00,
2013-09-05 02:17:00,78.4,77.0,30.01,NE,46,0.0,-999.0,95,-99.99,,,0.00,0,weatherlink.com 1.10,2013-09-05 06:17:00,
2013-09-05 02:32:00,78.2,77.0,30.01,ENE,76,0.0,-999.0,95,-99.99,,,0.00,0,weatherlink.com 1.10,2013-09-05 06:32:00,
2013-09-05 02:47:00,78.1,77.0,30.00,East,87,0.0,-999.0,95,-99.99,,,0.00,0,weatherlink.com 1.10,2013-09-05 06:47:00,
2013-09-05 03:02:00,78.0,77.0,30.00,East,84,0.0,-999.0,95,-99.99,,,0.00,0,weatherlink.com 1.10,2013-09-05 07:02:00,
2013-09-05 03:17:00,78.0,77.0,30.00,East,89,0.0,-999.0,95,-99.99,,,0.00,0,weatherlink.com 1.10,2013-09-05 07:17:00,
2013-09-05 03:32:00,77.9,76.0,30.00,East,86,0.0,-999.0,95,-99.99,,,0.00,0,weatherlink.com 1.10,2013-09-05 07:32:00,
2013-09-05 03:47:00,77.9,76.0,30.00,East,82,0.0,-999.0,95,-99.99,,,0.00,0,weatherlink.com 1.10,2013-09-05 07:47:00,
2013-09-05 04:02:00,77.8,76.0,30.00,East,91,0.0,-999.0,95,-99.99,,,0.00,0,weatherlink.com 1.10,2013-09-05 08:02:00,
2013-09-05 04:17:00,77.7,76.0,30.00,East,87,0.0,-999.0,95,-99.99,,,0.00,0,weatherlink.com 1.10,2013-09-05 08:17:00,
2013-09-05 04:32:00,77.7,76.0,30.00,East,87,0.0,-999.0,95,-99.99,,,0.00,0,weatherlink.com 1.10,2013-09-05 08:32:00,
2013-09-05 04:47:00,77.7,77.0,30.00,East,92,0.0,-999.0,96,-99.99,,,0.00,0,weatherlink.com 1.10,2013-09-05 08:47:00,
2013-09-05 05:02:00,77.8,76.0,30.00,East,92,0.0,-999.0,95,-99.99,,,0.00,0,weatherlink.com 1.10,2013-09-05 09:02:00,
2013-09-05 05:17:00,77.8,76.0,30.00,NE,50,0.0,-999.0,95,-99.99,,,0.00,0,weatherlink.com 1.10,2013-09-05 09:17:00,
2013-09-05 05:32:00,77.8,76.0,30.00,ENE,76,0.0,-999.0,95,-99.99,,,0.00,0,weatherlink.com 1.10,2013-09-05 09:32:00,
2013-09-05 05:47:00,77.8,76.0,30.01,East,80,0.0,-999.0,95,-99.99,,,0.00,0,weatherlink.com 1.10,2013-09-05 09:47:00,
2013-09-05 06:02:00,77.7,76.0,30.01,East,88,0.0,-999.0,95,-99.99,,,0.00,0,weatherlink.com 1.10,2013-09-05 10:02:00,
2013-09-05 06:17:00,77.6,76.0,30.02,East,88,0.0,-999.0,95,-99.99,,,0.00,0,weatherlink.com 1.10,2013-09-05 10:17:00,
2013-09-05 06:32:00,77.6,76.0,30.02,East,92,0.0,-999.0,96,-99.99,,,0.00,0,weatherlink.com 1.10,2013-09-05 10:32:00,
2013-09-05 06:47:00,77.5,76.0,30.02,East,87,0.0,-999.0,96,-99.99,,,0.00,0,weatherlink.com 1.10,2013-09-05 10:47:00,
2013-09-05 07:02:00,77.4,76.0,30.02,East,84,0.0,-999.0,96,-99.99,,,0.00,0,weatherlink.com 1.10,2013-09-05 11:02:00,
2013-09-05 07:17:00,77.4,76.0,30.03,East,85,0.0,-999.0,96,-99.99,,,0.00,5,weatherlink.com 1.10,2013-09-05 11:17:00,
2013-09-05 07:32:00,77.4,76.0,30.03,East,88,0.0,-999.0,96,-99.99,,,0.00,18,weatherlink.com 1.10,2013-09-05 11:32:00,
2013-09-05 07:47:00,77.5,76.0,30.03,East,84,0.0,-999.0,96,-99.99,,,0.01,33,weatherlink.com 1.10,2013-09-05 11:47:00,
2013-09-05 08:02:00,77.7,77.0,30.04,ENE,73,0.0,-999.0,96,-99.99,,,0.01,30,weatherlink.com 1.10,2013-09-05 12:02:00,
2013-09-05 08:17:00,77.9,77.0,30.04,ENE,78,0.0,-999.0,96,-99.99,,,0.01,37,weatherlink.com 1.10,2013-09-05 12:17:00,
2013-09-05 08:32:00,78.3,77.0,30.04,ENE,59,0.0,-999.0,95,-99.99,,,0.01,51,weatherlink.com 1.10,2013-09-05 12:32:00,
2013-09-05 08:47:00,79.4,78.0,30.04,ESE,105,0.0,-999.0,95,-99.99,,,0.01,56,weatherlink.com 1.10,2013-09-05 12:47:00,
2013-09-05 09:02:00,80.5,79.0,30.04,ENE,77,0.0,-999.0,94,-99.99,,,0.01,69,weatherlink.com 1.10,2013-09-05 13:02:00,
2013-09-05 09:17:00,81.8,79.0,30.04,ENE,76,0.0,-999.0,91,-99.99,,,0.01,251,weatherlink.com 1.10,2013-09-05 13:17:00,
2013-09-05 09:32:00,83.3,80.0,30.05,East,85,0.0,-999.0,88,-99.99,,,0.01,392,weatherlink.com 1.10,2013-09-05 13:32:00,
2013-09-05 09:47:00,84.5,80.0,30.06,ESE,106,0.0,-999.0,85,-99.99,,,0.01,332,weatherlink.com 1.10,2013-09-05 13:47:00,
2013-09-05 10:02:00,86.0,80.0,30.06,SE,131,0.0,-999.0,83,-99.99,,,0.01,513,weatherlink.com 1.10,2013-09-05 14:02:00,
2013-09-05 10:17:00,87.0,80.0,30.06,ENE,75,0.0,-999.0,80,-99.99,,,0.01,580,weatherlink.com 1.10,2013-09-05 14:17:00,
2013-09-05 10:32:00,88.7,81.0,30.06,SE,134,0.0,-999.0,77,-99.99,,,0.01,617,weatherlink.com 1.10,2013-09-05 14:32:00,
2013-09-05 10:47:00,89.6,79.0,30.07,East,98,0.0,-999.0,72,-99.99,,,0.01,643,weatherlink.com 1.10,2013-09-05 14:47:00,
2013-09-05 11:02:00,90.2,79.0,30.07,SE,131,0.0,-999.0,70,-99.99,,,0.01,708,weatherlink.com 1.10,2013-09-05 15:02:00,
2013-09-05 11:17:00,91.4,80.0,30.07,East,85,0.0,-999.0,70,-99.99,,,0.01,777,weatherlink.com 1.10,2013-09-05 15:17:00,
2013-09-05 11:32:00,90.7,78.0,30.07,ESE,121,0.0,-999.0,67,-99.99,,,0.01,236,weatherlink.com 1.10,2013-09-05 15:32:00,
2013-09-05 11:47:00,89.4,79.0,30.07,East,84,0.0,-999.0,71,-99.99,,,0.01,744,weatherlink.com 1.10,2013-09-05 15:47:00,
2013-09-05 12:02:00,90.0,79.0,30.07,SE,135,0.0,-999.0,71,-99.99,,,0.01,123,weatherlink.com 1.10,2013-09-05 16:02:00,
2013-09-05 12:17:00,90.3,79.0,30.06,SW,232,0.0,-999.0,69,-99.99,,,0.01,889,weatherlink.com 1.10,2013-09-05 16:17:00,
2013-09-05 12:32:00,92.5,80.0,30.06,NE,43,0.0,-999.0,67,-99.99,,,0.01,1037,weatherlink.com 1.10,2013-09-05 16:32:00,
2013-09-05 12:47:00,90.0,78.0,30.06,NNE,21,0.0,-999.0,68,-99.99,,,0.01,480,weatherlink.com 1.10,2013-09-05 16:47:00,
2013-09-05 13:02:00,88.1,78.0,30.05,NNE,27,0.0,-999.0,72,-99.99,,,0.01,79,weatherlink.com 1.10,2013-09-05 17:02:00,
2013-09-05 13:17:00,86.8,80.0,30.05,NNE,30,0.0,-999.0,79,-99.99,,,0.01,77,weatherlink.com 1.10,2013-09-05 17:17:00,
2013-09-05 13:32:00,84.1,79.0,30.05,NE,52,0.0,-999.0,84,-99.99,,,0.02,77,weatherlink.com 1.10,2013-09-05 17:32:00,
2013-09-05 13:47:00,79.6,76.0,30.05,ESE,109,0.0,-999.0,88,-99.99,,,0.37,158,weatherlink.com 1.10,2013-09-05 17:47:00,
2013-09-05 14:02:00,79.4,77.0,30.05,ESE,109,0.0,-999.0,93,-99.99,,,0.37,171,weatherlink.com 1.10,2013-09-05 18:02:00,
2013-09-05 14:17:00,80.1,78.0,30.03,ESE,109,0.0,-999.0,94,-99.99,,,0.37,186,weatherlink.com 1.10,2013-09-05 18:17:00,
2013-09-05 14:32:00,80.7,79.0,30.02,ESE,109,0.0,-999.0,94,-99.99,,,0.37,202,weatherlink.com 1.10,2013-09-05 18:32:00,
2013-09-05 14:47:00,81.3,80.0,30.02,ESE,111,0.0,-999.0,94,-99.99,,,0.37,294,weatherlink.com 1.10,2013-09-05 18:47:00,
2013-09-05 15:02:00,82.5,80.0,30.02,ESE,111,0.0,-999.0,93,-99.99,,,0.37,538,weatherlink.com 1.10,2013-09-05 19:02:00,
2013-09-05 15:17:00,85.2,81.0,30.01,SSW,209,0.0,-999.0,87,-99.99,,,0.37,759,weatherlink.com 1.10,2013-09-05 19:17:00,
2013-09-05 15:32:00,87.7,80.0,30.01,SW,226,0.0,-999.0,78,-99.99,,,0.37,788,weatherlink.com 1.10,2013-09-05 19:32:00,
2013-09-05 15:47:00,90.0,81.0,30.00,WSW,239,0.0,-999.0,74,-99.99,,,0.37,749,weatherlink.com 1.10,2013-09-05 19:47:00,
2013-09-05 16:02:00,91.5,80.0,29.99,South,188,0.0,-999.0,69,-99.99,,,0.37,772,weatherlink.com 1.10,2013-09-05 20:02:00,
2013-09-05 16:17:00,92.3,80.0,30.00,SE,129,0.0,-999.0,68,-99.99,,,0.37,729,weatherlink.com 1.10,2013-09-05 20:17:00,
2013-09-05 16:32:00,92.2,78.0,30.00,ESE,119,0.0,-999.0,64,-99.99,,,0.37,301,weatherlink.com 1.10,2013-09-05 20:32:00,
2013-09-05 16:47:00,92.3,79.0,29.99,West,261,0.0,-999.0,65,-99.99,,,0.37,693,weatherlink.com 1.10,2013-09-05 20:47:00,
2013-09-05 17:02:00,92.0,79.0,29.99,ENE,74,0.0,-999.0,66,-99.99,,,0.37,487,weatherlink.com 1.10,2013-09-05 21:02:00,
2013-09-05 17:17:00,90.1,80.0,29.98,ENE,67,0.0,-999.0,71,-99.99,,,0.37,287,weatherlink.com 1.10,2013-09-05 21:17:00,
2013-09-05 17:32:00,89.4,78.0,29.99,ENE,69,0.0,-999.0,70,-99.99,,,0.37,439,weatherlink.com 1.10,2013-09-05 21:32:00,
2013-09-05 17:47:00,88.5,78.0,30.00,NE,54,0.0,-999.0,72,-99.99,,,0.37,206,weatherlink.com 1.10,2013-09-05 21:47:00,
2013-09-05 18:02:00,88.3,79.0,30.00,NE,53,0.0,-999.0,74,-99.99,,,0.37,209,weatherlink.com 1.10,2013-09-05 22:02:00,
2013-09-05 18:17:00,88.1,79.0,30.00,ENE,59,0.0,-999.0,74,-99.99,,,0.37,218,weatherlink.com 1.10,2013-09-05 22:17:00,
2013-09-05 18:32:00,88.1,77.0,30.00,ENE,71,0.0,-999.0,70,-99.99,,,0.37,174,weatherlink.com 1.10,2013-09-05 22:32:00,
2013-09-05 18:47:00,87.8,78.0,30.00,ENE,77,0.0,-999.0,72,-99.99,,,0.37,81,weatherlink.com 1.10,2013-09-05 22:47:00,
2013-09-05 19:02:00,87.3,77.0,29.99,East,81,0.0,-999.0,72,-99.99,,,0.37,49,weatherlink.com 1.10,2013-09-05 23:02:00,
2013-09-05 19:17:00,86.6,77.0,29.99,East,92,0.0,-999.0,74,-99.99,,,0.37,28,weatherlink.com 1.10,2013-09-05 23:17:00,
2013-09-05 19:32:00,85.8,77.0,30.00,East,92,0.0,-999.0,75,-99.99,,,0.37,12,weatherlink.com 1.10,2013-09-05 23:32:00,
2013-09-05 19:47:00,85.2,77.0,30.00,East,94,0.0,-999.0,77,-99.99,,,0.37,0,weatherlink.com 1.10,2013-09-05 23:47:00,
2013-09-05 20:02:00,84.5,77.0,30.00,East,93,0.0,-999.0,79,-99.99,,,0.37,0,weatherlink.com 1.10,2013-09-06 00:02:00,
2013-09-05 20:17:00,83.9,78.0,30.00,East,92,0.0,-999.0,81,-99.99,,,0.37,0,weatherlink.com 1.10,2013-09-06 00:17:00,
2013-09-05 20:32:00,83.6,78.0,30.01,East,88,0.0,-999.0,83,-99.99,,,0.37,0,weatherlink.com 1.10,2013-09-06 00:32:00,
2013-09-05 20:47:00,83.1,78.0,30.01,ENE,76,0.0,-999.0,84,-99.99,,,0.37,0,weatherlink.com 1.10,2013-09-06 00:47:00,
2013-09-05 21:02:00,82.7,78.0,30.01,ENE,78,0.0,-999.0,85,-99.99,,,0.37,0,weatherlink.com 1.10,2013-09-06 01:02:00,
2013-09-05 21:17:00,82.4,78.0,30.03,East,88,0.0,-999.0,85,-99.99,,,0.37,0,weatherlink.com 1.10,2013-09-06 01:17:00,
2013-09-05 21:33:00,82.2,77.0,30.04,East,84,0.0,-999.0,85,-99.99,,,0.37,0,weatherlink.com 1.10,2013-09-06 01:33:00,
2013-09-05 21:47:00,82.1,77.0,30.04,ENE,72,0.0,-999.0,85,-99.99,,,0.37,0,weatherlink.com 1.10,2013-09-06 01:47:00,
2013-09-05 22:02:00,81.9,77.0,30.04,ENE,78,0.0,-999.0,86,-99.99,,,0.37,0,weatherlink.com 1.10,2013-09-06 02:02:00,
2013-09-05 22:18:00,81.8,77.0,30.04,ENE,78,0.0,-999.0,86,-99.99,,,0.37,0,weatherlink.com 1.10,2013-09-06 02:18:00,
2013-09-05 22:33:00,81.6,77.0,30.04,East,86,0.0,-999.0,86,-99.99,,,0.37,0,weatherlink.com 1.10,2013-09-06 02:33:00,
2013-09-05 22:48:00,81.3,77.0,30.04,ESE,118,0.0,-999.0,87,-99.99,,,0.37,0,weatherlink.com 1.10,2013-09-06 02:48:00,
2013-09-05 23:03:00,81.0,77.0,30.04,ESE,118,0.0,-999.0,87,-99.99,,,0.37,0,weatherlink.com 1.10,2013-09-06 03:03:00,
2013-09-05 23:18:00,80.7,77.0,30.03,ESE,112,0.0,-999.0,88,-99.99,,,0.37,0,weatherlink.com 1.10,2013-09-06 03:18:00,
2013-09-05 23:33:00,80.5,77.0,30.03,ESE,112,0.0,-999.0,88,-99.99,,,0.37,0,weatherlink.com 1.10,2013-09-06 03:33:00,
2013-09-05 23:48:00,80.3,77.0,30.03,ESE,112,0.0,-999.0,89,-99.99,,,0.37,0,weatherlink.com 1.10,2013-09-06 03:48:00,